| time (UTC) | temp F | wind direction | speed MPH | gust MPH | rain 1hr in | rain 24hr in | rain mn in | humidity % | barometer mb |
| 20260505111517 | 57 | 360 | 4.0 | 8.0 | 0.00 | 0.00 | 0.00 | 44 | 1010.1 |
| 20260505111017 | 57 | 81 | 5.0 | 8.0 | 0.00 | 0.00 | 0.00 | 43 | 1010.0 |
| 20260505110517 | 57 | 100 | 8.0 | 8.0 | 0.00 | 0.00 | 0.00 | 43 | 1010.0 |
| 20260505102017 | 58 | 360 | 4.0 | 7.0 | 0.00 | 0.00 | 0.00 | 42 | 1010.1 |
| 20260505101517 | 58 | 74 | 4.0 | 7.0 | 0.00 | 0.00 | 0.00 | 41 | 1010.1 |
| 20260505101017 | 58 | 71 | 3.0 | 7.0 | 0.00 | 0.00 | 0.00 | 41 | 1009.9 |
| 20260505100517 | 58 | 78 | 2.0 | 7.0 | 0.00 | 0.00 | 0.00 | 40 | 1009.8 |
| 20260505100017 | 58 | 360 | 1.0 | 10.0 | 0.00 | 0.00 | 0.00 | 40 | 1009.8 |
| 20260505095517 | 59 | 107 | 4.0 | 10.0 | 0.00 | 0.00 | 0.00 | 40 | 1009.9 |
| 20260505095017 | 59 | 360 | 3.0 | 6.0 | 0.00 | 0.00 | 0.00 | 40 | 1009.9 |
| 20260505094517 | 59 | 360 | 2.0 | 5.0 | 0.00 | 0.00 | 0.00 | 40 | 1009.9 |
| 20260505094017 | 59 | 50 | 3.0 | 7.0 | 0.00 | 0.00 | 0.00 | 40 | 1009.9 |
| 20260505093517 | 59 | 96 | 1.0 | 10.0 | 0.00 | 0.00 | 0.00 | 39 | 1009.9 |
| 20260505092517 | 59 | 96 | 3.0 | 11.0 | 0.00 | 0.00 | 0.00 | 39 | 1009.8 |
| 20260505092017 | 59 | 360 | 7.0 | 11.0 | 0.00 | 0.00 | 0.00 | 39 | 1009.8 |
| 20260505091518 | 60 | 57 | 9.0 | 11.0 | 0.00 | 0.00 | 0.00 | 38 | 1010.0 |
| 20260505091017 | 60 | 73 | 4.0 | 8.0 | 0.00 | 0.00 | 0.00 | 38 | 1010.0 |
| 20260505090517 | 60 | 360 | 5.0 | 9.0 | 0.00 | 0.00 | 0.00 | 37 | 1010.1 |
| 20260505090017 | 60 | 74 | 7.0 | 10.0 | 0.00 | 0.00 | 0.00 | 37 | 1010.1 |
| 20260505085518 | 60 | 34 | 5.0 | 10.0 | 0.00 | 0.00 | 0.00 | 37 | 1010.0 |
| 20260505085017 | 60 | 79 | 6.0 | 10.0 | 0.00 | 0.00 | 0.00 | 37 | 1010.0 |
| 20260505084517 | 61 | 65 | 7.0 | 11.0 | 0.00 | 0.00 | 0.00 | 36 | 1010.1 |
| 20260505084017 | 61 | 360 | 5.0 | 11.0 | 0.00 | 0.00 | 0.00 | 35 | 1010.0 |
| 20260505083517 | 61 | 76 | 5.0 | 9.0 | 0.00 | 0.00 | 0.00 | 35 | 1009.9 |
| 20260505083018 | 61 | 360 | 7.0 | 9.0 | 0.00 | 0.00 | 0.00 | 34 | 1009.9 |
| 20260505082517 | 62 | 92 | 2.0 | 7.0 | 0.00 | 0.00 | 0.00 | 35 | 1009.9 |
| 20260505082017 | 62 | 86 | 7.0 | 8.0 | 0.00 | 0.00 | 0.00 | 35 | 1010.1 |
| 20260505081517 | 62 | 80 | 5.0 | 8.0 | 0.00 | 0.00 | 0.00 | 35 | 1010.1 |
| 20260505080517 | 62 | 360 | 5.0 | 7.0 | 0.00 | 0.00 | 0.00 | 35 | 1010.0 |
| 20260505075517 | 62 | 360 | 2.0 | 8.0 | 0.00 | 0.00 | 0.00 | 34 | 1010.2 |
| 20260505075017 | 62 | 360 | 4.0 | 6.0 | 0.00 | 0.00 | 0.00 | 34 | 1010.2 |
| 20260505074018 | 63 | 360 | 3.0 | 6.0 | 0.00 | 0.00 | 0.00 | 34 | 1010.1 |
| 20260505073517 | 63 | 360 | 4.0 | 7.0 | 0.00 | 0.00 | 0.00 | 33 | 1010.1 |
| 20260505073017 | 63 | 103 | 0.0 | 8.0 | 0.00 | 0.00 | 0.00 | 33 | 1010.1 |
| 20260505072517 | 63 | 360 | 2.0 | 8.0 | 0.00 | 0.00 | 0.00 | 33 | 1010.2 |
| 20260505072017 | 63 | 360 | 3.0 | 8.0 | 0.00 | 0.00 | 0.00 | 33 | 1010.1 |
| 20260505071517 | 63 | 360 | 4.0 | 7.0 | 0.00 | 0.00 | 0.00 | 32 | 1010.0 |
| 20260505071017 | 63 | 360 | 1.0 | 6.0 | 0.00 | 0.00 | 0.00 | 32 | 1010.0 |
| 20260505070517 | 63 | 360 | 6.0 | 6.0 | 0.00 | 0.00 | 0.00 | 32 | 1010.0 |
| 20260505065017 | 64 | 360 | 2.0 | 9.0 | 0.00 | 0.00 | 0.00 | 31 | 1010.0 |
| 20260505064017 | 64 | 139 | 1.0 | 5.0 | 0.00 | 0.00 | 0.00 | 31 | 1010.0 |
| 20260505063517 | 64 | 360 | 0.0 | 7.0 | 0.00 | 0.00 | 0.00 | 30 | 1010.0 |
| 20260505063017 | 65 | 360 | 1.0 | 7.0 | 0.00 | 0.00 | 0.00 | 30 | 1009.9 |
| 20260505062517 | 65 | 360 | 1.0 | 5.0 | 0.00 | 0.00 | 0.00 | 30 | 1009.8 |
| 20260505062017 | 65 | 360 | 1.0 | 8.0 | 0.00 | 0.00 | 0.00 | 30 | 1009.8 |
| 20260505061517 | 65 | 195 | 0.0 | 11.0 | 0.00 | 0.00 | 0.00 | 30 | 1009.7 |
| 20260505061017 | 65 | 360 | 8.0 | 11.0 | 0.00 | 0.00 | 0.00 | 29 | 1009.8 |
| 20260505060517 | 65 | 360 | 1.0 | 9.0 | 0.00 | 0.00 | 0.00 | 29 | 1009.8 |
| 20260505060017 | 65 | 360 | 3.0 | 9.0 | 0.00 | 0.00 | 0.00 | 29 | 1009.8 |
| 20260505055517 | 66 | 360 | 2.0 | 8.0 | 0.00 | 0.00 | 0.00 | 29 | 1009.5 |
| 20260505055017 | 66 | 360 | 3.0 | 9.0 | 0.00 | 0.00 | 0.00 | 28 | 1009.5 |
| 20260505054517 | 66 | 360 | 2.0 | 11.0 | 0.00 | 0.00 | 0.00 | 28 | 1009.5 |
| 20260505054017 | 66 | 360 | 3.0 | 11.0 | 0.00 | 0.00 | 0.00 | 28 | 1009.4 |
| 20260505053517 | 66 | 360 | 5.0 | 11.0 | 0.00 | 0.00 | 0.00 | 28 | 1009.5 |
| 20260505053017 | 66 | 360 | 3.0 | 11.0 | 0.00 | 0.00 | 0.00 | 28 | 1009.4 |
| 20260505052517 | 66 | 360 | 7.0 | 11.0 | 0.00 | 0.00 | 0.00 | 28 | 1009.3 |
| 20260505052017 | 66 | 360 | 8.0 | 11.0 | 0.00 | 0.00 | 0.00 | 28 | 1009.2 |
| 20260505051517 | 66 | 360 | 5.0 | 11.0 | 0.00 | 0.00 | 0.00 | 27 | 1009.3 |
| 20260505051017 | 67 | 360 | 3.0 | 11.0 | 0.00 | 0.00 | 0.00 | 27 | 1009.4 |
| 20260505050516 | 67 | 360 | 3.0 | 15.0 | 0.00 | 0.00 | 0.00 | 27 | 1009.6 |
| 20260505041517 | 68 | 360 | 2.0 | 12.0 | 0.00 | 0.00 | 0.00 | 24 | 1008.9 |
| 20260505041016 | 68 | 360 | 5.0 | 12.0 | 0.00 | 0.00 | 0.00 | 24 | 1008.8 |
| 20260505040516 | 68 | 360 | 7.0 | 11.0 | 0.00 | 0.00 | 0.00 | 23 | 1008.8 |
| 20260505035516 | 69 | 360 | 6.0 | 9.0 | 0.00 | 0.00 | 0.00 | 23 | 1008.4 |
| 20260505035017 | 69 | 360 | 2.0 | 13.0 | 0.00 | 0.00 | 0.00 | 22 | 1008.4 |
| 20260505034517 | 69 | 360 | 5.0 | 13.0 | 0.00 | 0.00 | 0.00 | 22 | 1008.3 |
| 20260505034016 | 69 | 360 | 2.0 | 12.0 | 0.00 | 0.00 | 0.00 | 21 | 1008.2 |
| 20260505033518 | 69 | 360 | 4.0 | 11.0 | 0.00 | 0.00 | 0.00 | 21 | 1007.8 |
| 20260505033017 | 69 | 360 | 5.0 | 10.0 | 0.00 | 0.00 | 0.00 | 20 | 1007.8 |
| 20260505031517 | 70 | 360 | 6.0 | 13.0 | 0.00 | 0.00 | 0.00 | 19 | 1007.6 |
| 20260505031016 | 70 | 360 | 6.0 | 13.0 | 0.00 | 0.00 | 0.00 | 19 | 1007.8 |
| 20260505030516 | 70 | 360 | 3.0 | 12.0 | 0.00 | 0.00 | 0.00 | 19 | 1007.6 |
| 20260505030016 | 70 | 360 | 7.0 | 12.0 | 0.00 | 0.00 | 0.00 | 18 | 1007.5 |
| 20260505025017 | 71 | 360 | 3.0 | 13.0 | 0.00 | 0.00 | 0.00 | 18 | 1007.2 |
| 20260505024517 | 71 | 360 | 2.0 | 13.0 | 0.00 | 0.00 | 0.00 | 18 | 1007.1 |
| 20260505024017 | 71 | 360 | 6.0 | 11.0 | 0.00 | 0.00 | 0.00 | 18 | 1007.2 |
| 20260505023516 | 71 | 360 | 5.0 | 11.0 | 0.00 | 0.00 | 0.00 | 18 | 1007.1 |
| 20260505023017 | 72 | 360 | 7.0 | 13.0 | 0.00 | 0.00 | 0.00 | 17 | 1007.3 |
| 20260505022516 | 72 | 360 | 6.0 | 13.0 | 0.00 | 0.00 | 0.00 | 17 | 1007.2 |
| 20260505022017 | 72 | 171 | 2.0 | 12.0 | 0.00 | 0.00 | 0.00 | 17 | 1007.1 |
| 20260505021518 | 72 | 360 | 5.0 | 12.0 | 0.00 | 0.00 | 0.00 | 17 | 1007.1 |
| 20260505021016 | 73 | 360 | 5.0 | 13.0 | 0.00 | 0.00 | 0.00 | 17 | 1007.1 |
| 20260505015517 | 73 | 360 | 7.0 | 12.0 | 0.00 | 0.00 | 0.00 | 17 | 1006.8 |
| 20260505014017 | 73 | 360 | 10.0 | 16.0 | 0.00 | 0.00 | 0.00 | 16 | 1006.8 |
| 20260505013516 | 74 | 360 | 4.0 | 16.0 | 0.00 | 0.00 | 0.00 | 16 | 1006.9 |
| 20260505012516 | 74 | 360 | 3.0 | 11.0 | 0.00 | 0.00 | 0.00 | 15 | 1006.9 |
| 20260505011517 | 75 | 360 | 3.0 | 11.0 | 0.00 | 0.00 | 0.00 | 15 | 1006.8 |
| 20260505011016 | 75 | 137 | 4.0 | 12.0 | 0.00 | 0.00 | 0.00 | 16 | 1006.9 |
| 20260505010516 | 75 | 360 | 5.0 | 12.0 | 0.00 | 0.00 | 0.00 | 15 | 1007.0 |
| 20260505010016 | 75 | 360 | 4.0 | 12.0 | 0.00 | 0.00 | 0.00 | 15 | 1006.9 |
| 20260505005518 | 75 | 360 | 9.0 | 13.0 | 0.00 | 0.00 | 0.00 | 15 | 1007.0 |
| 20260505005017 | 75 | 360 | 10.0 | 13.0 | 0.00 | 0.00 | 0.00 | 14 | 1007.1 |
| 20260505004516 | 75 | 360 | 9.0 | 15.0 | 0.00 | 0.00 | 0.00 | 15 | 1007.1 |
| 20260505004016 | 75 | 360 | 4.0 | 15.0 | 0.00 | 0.00 | 0.00 | 15 | 1007.0 |
| 20260505003516 | 75 | 360 | 6.0 | 15.0 | 0.00 | 0.00 | 0.00 | 14 | 1007.2 |
| 20260505003016 | 75 | 360 | 3.0 | 12.0 | 0.00 | 0.00 | 0.00 | 16 | 1007.2 |
| 20260505002518 | 75 | 173 | 5.0 | 16.0 | 0.00 | 0.00 | 0.00 | 17 | 1007.4 |
| 20260505002016 | 76 | 360 | 7.0 | 16.0 | 0.00 | 0.00 | 0.00 | 16 | 1007.4 |
| 20260505001516 | 76 | 360 | 7.0 | 11.0 | 0.00 | 0.00 | 0.00 | 17 | 1007.4 |
| 20260505000538 | 76 | 360 | 7.0 | 15.0 | 0.00 | 0.00 | 0.00 | 16 | 1007.5 |
| 20260505000008 | 76 | 360 | 7.0 | 13.0 | 0.00 | 0.00 | 0.00 | 16 | 1007.3 |
| 20260504235539 | 76 | 142 | 8.0 | 18.0 | 0.00 | 0.00 | 0.00 | 17 | 1007.3 |
| 20260504234509 | 77 | 360 | 14.0 | 17.0 | 0.00 | 0.00 | 0.00 | 15 | 1007.6 |
| 20260504234009 | 77 | 360 | 9.0 | 18.0 | 0.00 | 0.00 | 0.00 | 15 | 1007.6 |
| 20260504233509 | 76 | 180 | 6.0 | 18.0 | 0.00 | 0.00 | 0.00 | 14 | 1007.5 |
| 20260504233009 | 77 | 360 | 7.0 | 13.0 | 0.00 | 0.00 | 0.00 | 14 | 1007.6 |
| 20260504232508 | 76 | 360 | 4.0 | 15.0 | 0.00 | 0.00 | 0.00 | 15 | 1007.5 |
| 20260504232008 | 76 | 360 | 9.0 | 15.0 | 0.00 | 0.00 | 0.00 | 15 | 1007.5 |
| 20260504231508 | 75 | 360 | 0.0 | 19.0 | 0.00 | 0.00 | 0.00 | 16 | 1007.5 |
| 20260504231009 | 76 | 360 | 7.0 | 19.0 | 0.00 | 0.00 | 0.00 | 16 | 1007.5 |
| 20260504230508 | 76 | 360 | 8.0 | 16.0 | 0.00 | 0.00 | 0.00 | 15 | 1007.5 |
| 20260504230038 | 76 | 360 | 6.0 | 16.0 | 0.00 | 0.00 | 0.00 | 14 | 1007.5 |
| 20260504225538 | 76 | 360 | 4.0 | 16.0 | 0.00 | 0.00 | 0.00 | 15 | 1007.7 |
| 20260504225009 | 77 | 198 | 5.0 | 20.0 | 0.00 | 0.00 | 0.00 | 15 | 1007.9 |
| 20260504224008 | 77 | 360 | 14.0 | 20.0 | 0.00 | 0.00 | 0.00 | 14 | 1008.0 |
| 20260504223508 | 77 | 360 | 9.0 | 19.0 | 0.00 | 0.00 | 0.00 | 13 | 1008.0 |
| 20260504223008 | 77 | 360 | 5.0 | 19.0 | 0.00 | 0.00 | 0.00 | 13 | 1008.2 |
| 20260504222508 | 78 | 179 | 11.0 | 22.0 | 0.00 | 0.00 | 0.00 | 12 | 1008.2 |
| 20260504222009 | 78 | 360 | 11.0 | 22.0 | 0.00 | 0.00 | 0.00 | 12 | 1008.1 |
| 20260504221509 | 78 | 360 | 13.0 | 21.0 | 0.00 | 0.00 | 0.00 | 12 | 1008.2 |
| 20260504220509 | 78 | 360 | 19.0 | 22.0 | 0.00 | 0.00 | 0.00 | 11 | 1008.3 |
| 20260504220008 | 78 | 360 | 8.0 | 16.0 | 0.00 | 0.00 | 0.00 | 10 | 1008.2 |
| 20260504215508 | 77 | 360 | 6.0 | 16.0 | 0.00 | 0.00 | 0.00 | 12 | 1008.3 |
| 20260504215008 | 78 | 360 | 14.0 | 16.0 | 0.00 | 0.00 | 0.00 | 13 | 1008.4 |
| 20260504214509 | 79 | 360 | 4.0 | 12.0 | 0.00 | 0.00 | 0.00 | 13 | 1008.8 |
| 20260504214009 | 78 | 360 | 7.0 | 15.0 | 0.00 | 0.00 | 0.00 | 14 | 1008.6 |
| 20260504213508 | 78 | 360 | 8.0 | 16.0 | 0.00 | 0.00 | 0.00 | 14 | 1009.0 |
| 20260504213008 | 78 | 127 | 4.0 | 16.0 | 0.00 | 0.00 | 0.00 | 13 | 1008.9 |
| 20260504212508 | 78 | 360 | 9.0 | 16.0 | 0.00 | 0.00 | 0.00 | 13 | 1008.9 |
| 20260504212008 | 77 | 360 | 5.0 | 19.0 | 0.00 | 0.00 | 0.00 | 14 | 1009.0 |
| 20260504211508 | 78 | 360 | 12.0 | 19.0 | 0.00 | 0.00 | 0.00 | 13 | 1009.0 |
| 20260504211008 | 77 | 360 | 5.0 | 19.0 | 0.00 | 0.00 | 0.00 | 12 | 1009.0 |
| 20260504210538 | 77 | 360 | 7.0 | 11.0 | 0.00 | 0.00 | 0.00 | 12 | 1009.1 |
| 20260504210008 | 77 | 360 | 7.0 | 13.0 | 0.00 | 0.00 | 0.00 | 13 | 1009.0 |
| 20260504205508 | 77 | 360 | 11.0 | 17.0 | 0.00 | 0.00 | 0.00 | 13 | 1009.0 |
| 20260504205008 | 78 | 360 | 10.0 | 17.0 | 0.00 | 0.00 | 0.00 | 14 | 1009.2 |
| 20260504204508 | 77 | 360 | 11.0 | 15.0 | 0.00 | 0.00 | 0.00 | 15 | 1008.9 |
| 20260504204038 | 77 | 360 | 5.0 | 18.0 | 0.00 | 0.00 | 0.00 | 14 | 1008.9 |
| 20260504203508 | 77 | 182 | 7.0 | 18.0 | 0.00 | 0.00 | 0.00 | 15 | 1009.2 |
| 20260504203008 | 77 | 360 | 4.0 | 13.0 | 0.00 | 0.00 | 0.00 | 16 | 1009.0 |
| 20260504202508 | 78 | 360 | 1.0 | 13.0 | 0.00 | 0.00 | 0.00 | 15 | 1009.4 |
| 20260504202008 | 77 | 360 | 4.0 | 13.0 | 0.00 | 0.00 | 0.00 | 16 | 1009.2 |
| 20260504201508 | 77 | 188 | 4.0 | 15.0 | 0.00 | 0.00 | 0.00 | 16 | 1009.1 |
| 20260504201038 | 76 | 360 | 3.0 | 15.0 | 0.00 | 0.00 | 0.00 | 17 | 1009.3 |
| 20260504200508 | 76 | 360 | 7.0 | 11.0 | 0.00 | 0.00 | 0.00 | 17 | 1009.3 |
| 20260504200008 | 76 | 360 | 4.0 | 17.0 | 0.00 | 0.00 | 0.00 | 16 | 1009.4 |
| 20260504195508 | 76 | 360 | 3.0 | 17.0 | 0.00 | 0.00 | 0.00 | 15 | 1009.4 |
| 20260504195008 | 75 | 360 | 10.0 | 15.0 | 0.00 | 0.00 | 0.00 | 17 | 1009.3 |
| 20260504194538 | 76 | 360 | 12.0 | 16.0 | 0.00 | 0.00 | 0.00 | 15 | 1009.6 |
| 20260504194008 | 75 | 150 | 11.0 | 16.0 | 0.00 | 0.00 | 0.00 | 18 | 1009.4 |
| 20260504193508 | 74 | 360 | 6.0 | 22.0 | 0.00 | 0.00 | 0.00 | 20 | 1009.4 |
| 20260504193008 | 75 | 132 | 2.0 | 22.0 | 0.00 | 0.00 | 0.00 | 19 | 1009.6 |
| 20260504192508 | 75 | 360 | 13.0 | 18.0 | 0.00 | 0.00 | 0.00 | 18 | 1009.6 |
| 20260504192008 | 75 | 360 | 5.0 | 12.0 | 0.00 | 0.00 | 0.00 | 21 | 1009.7 |
| 20260504191508 | 75 | 360 | 9.0 | 13.0 | 0.00 | 0.00 | 0.00 | 21 | 1009.7 |
| 20260504191008 | 75 | 111 | 5.0 | 18.0 | 0.00 | 0.00 | 0.00 | 21 | 1009.6 |
| 20260504190508 | 74 | 360 | 7.0 | 18.0 | 0.00 | 0.00 | 0.00 | 22 | 1009.8 |
| 20260504190008 | 74 | 134 | 8.0 | 16.0 | 0.00 | 0.00 | 0.00 | 20 | 1009.7 |
| 20260504185508 | 73 | 360 | 12.0 | 16.0 | 0.00 | 0.00 | 0.00 | 20 | 1010.0 |
| 20260504184038 | 72 | 117 | 5.0 | 14.0 | 0.00 | 0.00 | 0.00 | 24 | 1010.1 |
| 20260504183508 | 72 | 360 | 5.0 | 16.0 | 0.00 | 0.00 | 0.00 | 24 | 1010.0 |
| 20260504183008 | 73 | 360 | 3.0 | 16.0 | 0.00 | 0.00 | 0.00 | 25 | 1010.1 |
| 20260504182508 | 71 | 360 | 4.0 | 16.0 | 0.00 | 0.00 | 0.00 | 26 | 1010.1 |
| 20260504182009 | 72 | 360 | 11.0 | 17.0 | 0.00 | 0.00 | 0.00 | 26 | 1010.1 |
| 20260504181508 | 72 | 360 | 5.0 | 17.0 | 0.00 | 0.00 | 0.00 | 24 | 1010.2 |
| 20260504180538 | 72 | 167 | 6.0 | 13.0 | 0.00 | 0.00 | 0.00 | 25 | 1010.2 |
| 20260504180008 | 72 | 360 | 4.0 | 13.0 | 0.00 | 0.00 | 0.00 | 24 | 1010.2 |
| 20260504175508 | 72 | 360 | 7.0 | 13.0 | 0.00 | 0.00 | 0.00 | 23 | 1010.2 |
| 20260504174509 | 71 | 360 | 4.0 | 14.0 | 0.00 | 0.00 | 0.00 | 25 | 1010.2 |
| 20260504174008 | 71 | 360 | 5.0 | 14.0 | 0.00 | 0.00 | 0.00 | 26 | 1010.2 |
| 20260504173038 | 71 | 360 | 5.0 | 14.0 | 0.00 | 0.00 | 0.00 | 27 | 1010.0 |
| 20260504172508 | 70 | 360 | 3.0 | 16.0 | 0.00 | 0.00 | 0.00 | 29 | 1009.8 |
| 20260504172008 | 70 | 360 | 4.0 | 16.0 | 0.00 | 0.00 | 0.00 | 29 | 1009.8 |
| 20260504171508 | 69 | 200 | 2.0 | 13.0 | 0.00 | 0.00 | 0.00 | 31 | 1009.6 |
| 20260504171007 | 69 | 146 | 7.0 | 10.0 | 0.00 | 0.00 | 0.00 | 31 | 1009.7 |
| 20260504170538 | 69 | 360 | 10.0 | 11.0 | 0.00 | 0.00 | 0.00 | 31 | 1009.8 |
| 20260504151007 | 64 | 360 | 6.0 | 13.0 | 0.00 | 0.00 | 0.00 | 39 | 1009.6 |
| 20260504140507 | 62 | 360 | 5.0 | 8.0 | 0.00 | 0.00 | 0.00 | 39 | 1009.2 |
| 20260504130507 | 64 | 360 | 2.0 | 9.0 | 0.00 | 0.00 | 0.00 | 36 | 1008.7 |